Data start date =,1/1/1930
Data end date/time =,5/6/2024 12:00
Vertical Datum =,NGVD29
""
Date/Time,MissHW_Winni-Tailwater
,Elev
UTC,ft
,Ave
1/2/1930 12:00,1285.02
1/3/1930 12:00,1285.02
1/4/1930 12:00,1284.99
1/5/1930 12:00,1284.97
1/6/1930 12:00,1284.97
1/7/1930 12:00,1284.97
1/8/1930 12:00,1284.97
1/9/1930 12:00,1284.96
1/10/1930 12:00,1284.95
1/11/1930 12:00,1284.95
1/12/1930 12:00,1284.94
1/13/1930 12:00,1284.94
1/14/1930 12:00,1284.94
1/15/1930 12:00,1284.94
1/16/1930 12:00,1284.94
1/17/1930 12:00,1284.94
1/18/1930 12:00,1284.94
1/19/1930 12:00,1284.94
1/20/1930 12:00,1284.94
1/21/1930 12:00,1284.96
1/22/1930 12:00,1284.96
1/23/1930 12:00,1285.04
1/24/1930 12:00,1285.05
1/25/1930 12:00,1285.05
1/26/1930 12:00,1285.05
1/27/1930 12:00,1285.05
1/28/1930 12:00,1285.07
1/29/1930 12:00,1285.09
1/30/1930 12:00,1285.09
1/31/1930 12:00,1285.09
2/1/1930 12:00,1285.09
2/2/1930 12:00,1284.99
2/3/1930 12:00,1284.94
2/4/1930 12:00,1284.90
2/5/1930 12:00,1284.89
2/6/1930 12:00,1284.89
2/7/1930 12:00,1284.89
2/8/1930 12:00,1284.59
2/9/1930 12:00,1284.59
2/10/1930 12:00,1284.59
2/11/1930 12:00,1284.64
2/12/1930 12:00,1284.74
2/13/1930 12:00,1284.74
2/14/1930 12:00,1284.74
2/15/1930 12:00,1284.74
2/16/1930 12:00,1284.74
2/17/1930 12:00,1284.79
2/18/1930 12:00,1284.79
2/19/1930 12:00,1284.79
2/20/1930 12:00,1284.82
2/21/1930 12:00,1284.82
2/22/1930 12:00,1284.82
2/23/1930 12:00,1284.82
2/24/1930 12:00,1284.82
2/25/1930 12:00,1284.84
2/26/1930 12:00,1284.99
2/27/1930 12:00,1284.99
2/28/1930 12:00,1284.99
3/1/1930 12:00,1284.99
3/2/1930 12:00,1284.99
3/3/1930 12:00,1284.96
3/4/1930 12:00,1284.94
3/5/1930 12:00,1284.92
3/6/1930 12:00,1284.89
3/7/1930 12:00,1284.89
3/8/1930 12:00,1284.87
3/9/1930 12:00,1284.84
3/10/1930 12:00,1284.84
3/11/1930 12:00,1284.83
3/12/1930 12:00,1284.82
3/13/1930 12:00,1284.82
3/14/1930 12:00,1284.81
3/15/1930 12:00,1284.81
3/16/1930 12:00,1284.81
3/17/1930 12:00,1284.79
3/18/1930 12:00,1284.79
3/19/1930 12:00,1284.79
3/20/1930 12:00,1284.79
3/21/1930 12:00,1284.78
3/22/1930 12:00,1284.78
3/23/1930 12:00,1284.79
3/24/1930 12:00,1284.80
3/25/1930 12:00,1284.80
3/26/1930 12:00,1284.80
3/27/1930 12:00,1284.80
3/28/1930 12:00,1284.80
3/29/1930 12:00,1284.80
3/30/1930 12:00,1284.80
3/31/1930 12:00,1284.80
4/1/1930 12:00,1284.80
4/2/1930 12:00,1284.80
4/3/1930 12:00,1285.74
4/4/1930 12:00,1286.14
4/5/1930 12:00,1286.24
4/6/1930 12:00,1286.31
4/7/1930 12:00,1286.34
4/8/1930 12:00,1286.36
4/9/1930 12:00,1286.38
4/10/1930 12:00,1286.42
4/11/1930 12:00,1286.45
4/12/1930 12:00,1286.45
4/13/1930 12:00,1286.46
4/14/1930 12:00,1286.49
4/15/1930 12:00,1286.49
4/16/1930 12:00,1286.49
4/17/1930 12:00,1286.49
4/18/1930 12:00,1286.52
4/19/1930 12:00,1286.52
4/20/1930 12:00,1286.52
4/21/1930 12:00,1286.54
4/22/1930 12:00,1286.56
4/23/1930 12:00,1286.58
4/24/1930 12:00,1286.58
4/25/1930 12:00,1286.57
4/26/1930 12:00,1286.56
4/27/1930 12:00,1286.55
4/28/1930 12:00,1286.54
4/29/1930 12:00,1286.50
4/30/1930 12:00,1286.50
5/1/1930 12:00,1286.52
5/2/1930 12:00,1286.89
5/3/1930 12:00,1286.94
5/4/1930 12:00,1286.94
5/5/1930 12:00,1287.04
5/6/1930 12:00,1287.04
5/7/1930 12:00,1287.04
5/8/1930 12:00,1287.09
5/9/1930 12:00,1287.09
5/10/1930 12:00,1286.24
5/11/1930 12:00,1285.89
5/12/1930 12:00,1285.64
5/13/1930 12:00,1285.42
5/14/1930 12:00,1285.29
5/15/1930 12:00,1285.19
5/16/1930 12:00,1284.64
5/17/1930 12:00,1284.49
5/18/1930 12:00,1284.44
5/19/1930 12:00,1284.44
5/20/1930 12:00,1284.44
5/21/1930 12:00,1284.44
5/22/1930 12:00,1284.44
5/23/1930 12:00,1284.44
5/24/1930 12:00,1284.40
5/25/1930 12:00,1284.37
5/26/1930 12:00,1284.34
5/27/1930 12:00,1284.36
5/28/1930 12:00,1284.36
5/29/1930 12:00,1284.36
5/30/1930 12:00,1284.37
5/31/1930 12:00,1284.37
6/1/1930 12:00,1284.38
6/2/1930 12:00,1284.40
6/3/1930 12:00,1284.41
6/4/1930 12:00,1284.44
6/5/1930 12:00,1284.44
6/6/1930 12:00,1284.46
6/7/1930 12:00,1284.46
6/8/1930 12:00,1284.46
6/9/1930 12:00,1284.46
6/10/1930 12:00,1284.48
6/11/1930 12:00,1284.54
6/12/1930 12:00,1284.54
6/13/1930 12:00,1284.56
6/14/1930 12:00,1284.59
6/15/1930 12:00,1284.59
6/16/1930 12:00,1284.59
6/17/1930 12:00,1284.59
6/18/1930 12:00,1285.14
6/19/1930 12:00,1285.14
6/20/1930 12:00,1285.14
6/21/1930 12:00,1285.14
6/22/1930 12:00,1285.19
6/23/1930 12:00,1285.22
6/24/1930 12:00,1285.22
6/25/1930 12:00,1286.09
6/26/1930 12:00,1286.44
6/27/1930 12:00,1286.49
6/28/1930 12:00,1286.54
6/29/1930 12:00,1286.64
6/30/1930 12:00,1286.74
7/1/1930 12:00,1286.74
7/2/1930 12:00,1286.74
7/3/1930 12:00,1286.74
7/4/1930 12:00,1286.74
7/5/1930 12:00,1286.76
7/6/1930 12:00,1286.72
7/7/1930 12:00,1286.72
7/8/1930 12:00,1286.72
7/9/1930 12:00,1286.73
7/10/1930 12:00,1286.72
7/11/1930 12:00,1286.72
7/12/1930 12:00,1286.74
7/13/1930 12:00,1286.74
7/14/1930 12:00,1286.74
7/15/1930 12:00,1286.72
7/16/1930 12:00,1286.70
7/17/1930 12:00,1286.71
7/18/1930 12:00,1286.74
7/19/1930 12:00,1286.76
7/20/1930 12:00,1286.76
7/21/1930 12:00,1286.79
7/22/1930 12:00,1286.84
7/23/1930 12:00,1286.84
7/24/1930 12:00,1286.84
7/25/1930 12:00,1286.84
7/26/1930 12:00,1286.80
7/27/1930 12:00,1286.79
7/28/1930 12:00,1286.79
7/29/1930 12:00,1286.79
7/30/1930 12:00,1286.77
7/31/1930 12:00,1286.77
8/1/1930 12:00,1286.75
8/2/1930 12:00,1287.14
8/3/1930 12:00,1287.19
8/4/1930 12:00,1287.19
8/5/1930 12:00,1287.19
8/6/1930 12:00,1287.22
8/7/1930 12:00,1287.64
8/8/1930 12:00,1287.84
8/9/1930 12:00,1288.74
8/10/1930 12:00,1288.89
8/11/1930 12:00,1289.14
8/12/1930 12:00,1289.18
8/13/1930 12:00,1289.24
8/14/1930 12:00,1289.44
8/15/1930 12:00,1289.56
8/16/1930 12:00,1289.54
8/17/1930 12:00,1289.50
8/18/1930 12:00,1289.44
8/19/1930 12:00,1289.38
8/20/1930 12:00,1289.30
8/21/1930 12:00,1289.26
8/22/1930 12:00,1289.24
8/23/1930 12:00,1289.23
8/24/1930 12:00,1289.22
8/25/1930 12:00,1289.21
8/26/1930 12:00,1289.19
8/27/1930 12:00,1289.16
8/28/1930 12:00,1289.13
8/29/1930 12:00,1289.12
8/30/1930 12:00,1289.09
8/31/1930 12:00,1289.06
9/1/1930 12:00,1288.84
9/2/1930 12:00,1288.72
9/3/1930 12:00,1288.89
9/4/1930 12:00,1288.90
9/5/1930 12:00,1288.85
9/6/1930 12:00,1288.79
9/7/1930 12:00,1288.71
9/8/1930 12:00,1288.64
9/9/1930 12:00,1288.60
9/10/1930 12:00,1288.54
9/11/1930 12:00,1288.62
9/12/1930 12:00,1288.59
9/13/1930 12:00,1288.58
9/14/1930 12:00,1288.58
9/15/1930 12:00,1288.57
9/16/1930 12:00,1288.56
9/17/1930 12:00,1288.57
9/18/1930 12:00,1288.52
9/19/1930 12:00,1288.44
9/20/1930 12:00,1288.46
9/21/1930 12:00,1288.34
9/22/1930 12:00,1288.24
9/23/1930 12:00,1288.19
9/24/1930 12:00,1288.17
9/25/1930 12:00,1288.06
9/26/1930 12:00,1287.91
9/27/1930 12:00,1287.94
9/28/1930 12:00,1287.90
9/29/1930 12:00,1287.92
9/30/1930 12:00,1287.90
10/1/1930 12:00,1287.59
10/2/1930 12:00,1287.56
10/3/1930 12:00,1287.52
10/4/1930 12:00,1287.48
10/5/1930 12:00,1287.44
10/6/1930 12:00,1287.42
10/7/1930 12:00,1287.40
10/8/1930 12:00,1287.39
10/9/1930 12:00,1287.38
10/10/1930 12:00,1287.37
10/11/1930 12:00,1287.34
10/12/1930 12:00,1287.32
10/13/1930 12:00,1287.31
10/14/1930 12:00,1287.24
10/15/1930 12:00,1287.24
10/16/1930 12:00,1287.28
10/17/1930 12:00,1287.29
10/18/1930 12:00,1287.39
10/19/1930 12:00,1287.26
10/20/1930 12:00,1287.19
10/21/1930 12:00,1287.09
10/22/1930 12:00,1286.99
10/23/1930 12:00,1286.95
10/24/1930 12:00,1286.95
10/25/1930 12:00,1286.93
10/26/1930 12:00,1286.89
10/27/1930 12:00,1286.84
10/28/1930 12:00,1286.79
10/29/1930 12:00,1286.84
10/30/1930 12:00,1286.89
10/31/1930 12:00,1286.64
11/1/1930 12:00,1286.76
11/2/1930 12:00,1286.80
11/3/1930 12:00,1286.84
11/4/1930 12:00,1286.04
11/5/1930 12:00,1285.83
11/6/1930 12:00,1285.81
11/7/1930 12:00,1285.80
11/8/1930 12:00,1285.53
11/9/1930 12:00,1285.53
11/10/1930 12:00,1285.53
11/11/1930 12:00,1285.52
11/12/1930 12:00,1285.50
11/13/1930 12:00,1285.44
11/14/1930 12:00,1285.37
11/15/1930 12:00,1285.31
11/16/1930 12:00,1285.28
11/17/1930 12:00,1285.26
11/18/1930 12:00,1285.23
11/19/1930 12:00,1285.20
11/20/1930 12:00,1285.22
11/21/1930 12:00,1285.24
11/22/1930 12:00,1285.24
11/23/1930 12:00,1285.26
11/24/1930 12:00,1285.34
11/25/1930 12:00,1285.54
11/26/1930 12:00,1285.54
11/27/1930 12:00,1285.54
11/28/1930 12:00,1285.54
11/29/1930 12:00,1285.39
11/30/1930 12:00,1285.39
12/1/1930 12:00,1285.39
12/2/1930 12:00,1285.39
12/3/1930 12:00,1285.39
12/4/1930 12:00,1285.40
12/5/1930 12:00,1285.40
12/6/1930 12:00,1285.39
12/7/1930 12:00,1285.39
12/8/1930 12:00,1285.39
12/9/1930 12:00,1285.39
12/10/1930 12:00,1285.38
12/11/1930 12:00,1285.34
12/12/1930 12:00,1285.33
12/13/1930 12:00,1285.33
12/14/1930 12:00,1285.29
12/15/1930 12:00,1285.27
12/16/1930 12:00,1285.23
12/17/1930 12:00,1285.22
12/18/1930 12:00,1285.19
12/19/1930 12:00,1285.19
12/20/1930 12:00,1285.17
12/21/1930 12:00,1285.16
12/22/1930 12:00,1285.15
12/23/1930 12:00,1285.14
12/24/1930 12:00,1285.14
12/25/1930 12:00,1285.14
12/26/1930 12:00,1285.14
12/27/1930 12:00,1285.14
12/28/1930 12:00,1285.14
12/29/1930 12:00,1285.14
12/30/1930 12:00,1285.19
12/31/1930 12:00,1285.54
1/1/1931 12:00,1285.44
1/2/1931 12:00,1285.34
1/3/1931 12:00,1285.32
1/4/1931 12:00,1285.32
1/5/1931 12:00,1285.31
1/6/1931 12:00,1285.29
1/7/1931 12:00,1285.29
1/8/1931 12:00,1285.29
1/9/1931 12:00,1285.29
1/10/1931 12:00,1285.29
1/11/1931 12:00,1285.29
1/12/1931 12:00,1285.39
1/13/1931 12:00,1285.34
1/14/1931 12:00,1285.34
1/15/1931 12:00,1285.34
1/16/1931 12:00,1285.34
1/17/1931 12:00,1285.34
1/18/1931 12:00,1285.34
1/19/1931 12:00,1285.34
1/20/1931 12:00,1285.36
1/21/1931 12:00,1285.44
1/22/1931 12:00,1285.39
1/23/1931 12:00,1285.34
1/24/1931 12:00,1285.34
1/25/1931 12:00,1285.34
1/26/1931 12:00,1285.34
1/27/1931 12:00,1285.34
1/28/1931 12:00,1285.34
1/29/1931 12:00,1285.34
1/30/1931 12:00,1285.34
1/31/1931 12:00,1285.34
2/1/1931 12:00,1285.34
2/2/1931 12:00,1285.29
2/3/1931 12:00,1285.26
2/4/1931 12:00,1285.34
2/5/1931 12:00,1285.34
2/6/1931 12:00,1285.34
2/7/1931 12:00,1285.34
2/8/1931 12:00,1285.34
2/9/1931 12:00,1285.34
2/10/1931 12:00,1285.34
2/11/1931 12:00,1285.34
2/12/1931 12:00,1285.34
2/13/1931 12:00,1285.34
2/14/1931 12:00,1285.34
2/15/1931 12:00,1285.34
2/16/1931 12:00,1285.34
2/17/1931 12:00,1285.29
2/18/1931 12:00,1285.29
2/19/1931 12:00,1285.29
2/20/1931 12:00,1285.29
2/21/1931 12:00,1285.24
2/22/1931 12:00,1285.24
2/23/1931 12:00,1285.24
2/24/1931 12:00,1285.24
2/25/1931 12:00,1285.24
2/26/1931 12:00,1285.24
2/27/1931 12:00,1285.24
2/28/1931 12:00,1285.24
3/1/1931 12:00,1285.20
3/2/1931 12:00,1285.24
3/4/1931 12:00,1285.24
3/5/1931 12:00,1285.24
3/6/1931 12:00,1285.24
3/7/1931 12:00,1285.24
3/8/1931 12:00,1285.19
3/9/1931 12:00,1285.19
3/10/1931 12:00,1285.14
3/11/1931 12:00,1285.14
3/12/1931 12:00,1285.14
3/13/1931 12:00,1285.14
3/14/1931 12:00,1285.14
3/15/1931 12:00,1285.14
3/16/1931 12:00,1285.14
3/17/1931 12:00,1285.14
3/18/1931 12:00,1285.14
3/19/1931 12:00,1285.09
3/20/1931 12:00,1285.09
3/21/1931 12:00,1285.09
3/22/1931 12:00,1285.04
3/23/1931 12:00,1285.04
3/24/1931 12:00,1285.09
3/25/1931 12:00,1285.09
3/26/1931 12:00,1285.09
3/27/1931 12:00,1285.29
3/28/1931 12:00,1285.14
3/29/1931 12:00,1285.09
3/30/1931 12:00,1285.09
3/31/1931 12:00,1285.09
4/1/1931 12:00,1285.04
4/2/1931 12:00,1284.99
4/3/1931 12:00,1284.99
4/4/1931 12:00,1284.94
4/5/1931 12:00,1284.94
4/6/1931 12:00,1284.94
4/7/1931 12:00,1284.94
4/8/1931 12:00,1284.94
4/9/1931 12:00,1284.94
4/10/1931 12:00,1284.94
4/11/1931 12:00,1284.89
4/12/1931 12:00,1284.89
4/13/1931 12:00,1284.89
4/14/1931 12:00,1284.89
4/15/1931 12:00,1284.89
4/16/1931 12:00,1284.89
4/17/1931 12:00,1284.89
4/18/1931 12:00,1284.89
4/19/1931 12:00,1284.89
4/20/1931 12:00,1284.89
4/21/1931 12:00,1284.94
4/22/1931 12:00,1284.94
4/23/1931 12:00,1284.99
4/24/1931 12:00,1284.99
4/25/1931 12:00,1284.94
4/26/1931 12:00,1284.89
4/27/1931 12:00,1284.84
4/28/1931 12:00,1284.84
4/29/1931 12:00,1284.79
4/30/1931 12:00,1284.79
5/1/1931 12:00,1284.59
5/2/1931 12:00,1284.59
5/3/1931 12:00,1284.54
5/4/1931 12:00,1284.54
5/5/1931 12:00,1284.64
5/6/1931 12:00,1284.59
5/7/1931 12:00,1284.64
5/8/1931 12:00,1284.74
5/9/1931 12:00,1284.54
5/10/1931 12:00,1284.59
5/11/1931 12:00,1284.59
5/12/1931 12:00,1284.99
5/13/1931 12:00,1284.79
5/14/1931 12:00,1284.64
5/15/1931 12:00,1284.59
5/16/1931 12:00,1284.89
5/17/1931 12:00,1284.99
5/18/1931 12:00,1284.94
5/19/1931 12:00,1284.59
5/20/1931 12:00,1284.84
5/21/1931 12:00,1284.79
5/22/1931 12:00,1284.69
5/23/1931 12:00,1284.59
5/24/1931 12:00,1284.64
5/25/1931 12:00,1284.64
5/26/1931 12:00,1284.59
5/27/1931 12:00,1284.69
5/28/1931 12:00,1284.64
5/29/1931 12:00,1284.69
5/30/1931 12:00,1284.74
5/31/1931 12:00,1284.69
6/1/1931 12:00,1284.69
6/2/1931 12:00,1284.74
6/3/1931 12:00,1284.74
6/4/1931 12:00,1284.74
6/5/1931 12:00,1284.79
6/6/1931 12:00,1284.74
6/7/1931 12:00,1284.64
6/8/1931 12:00,1284.64
6/9/1931 12:00,1284.69
6/10/1931 12:00,1284.64
6/11/1931 12:00,1284.64
6/12/1931 12:00,1284.74
6/13/1931 12:00,1284.74
6/14/1931 12:00,1284.79
6/15/1931 12:00,1284.74
6/16/1931 12:00,1284.74
6/17/1931 12:00,1284.74
6/18/1931 12:00,1284.74
6/19/1931 12:00,1284.74
6/20/1931 12:00,1284.79
6/21/1931 12:00,1284.74
6/22/1931 12:00,1284.74
6/23/1931 12:00,1284.79
6/24/1931 12:00,1284.74
6/25/1931 12:00,1284.79
6/26/1931 12:00,1284.69
6/27/1931 12:00,1284.69
6/28/1931 12:00,1284.64
6/29/1931 12:00,1284.69
6/30/1931 12:00,1284.74
7/1/1931 12:00,1284.79
7/2/1931 12:00,1284.79
7/3/1931 12:00,1284.74
7/4/1931 12:00,1284.69
7/5/1931 12:00,1284.69
7/6/1931 12:00,1284.74
7/7/1931 12:00,1284.69
7/8/1931 12:00,1284.69
7/9/1931 12:00,1284.69
7/10/1931 12:00,1284.64
7/11/1931 12:00,1284.64
7/12/1931 12:00,1284.64
7/13/1931 12:00,1284.69
7/14/1931 12:00,1284.64
7/15/1931 12:00,1284.64
7/16/1931 12:00,1284.69
7/17/1931 12:00,1284.74
7/18/1931 12:00,1284.69
7/19/1931 12:00,1284.69
7/20/1931 12:00,1284.64
7/21/1931 12:00,1284.64
7/22/1931 12:00,1284.64
7/23/1931 12:00,1284.64
7/24/1931 12:00,1284.64
7/25/1931 12:00,1284.64
7/26/1931 12:00,1284.59
7/27/1931 12:00,1284.59
7/28/1931 12:00,1284.59
7/29/1931 12:00,1284.64
7/30/1931 12:00,1284.64
7/31/1931 12:00,1284.59
8/1/1931 12:00,1284.59
8/2/1931 12:00,1284.64
8/3/1931 12:00,1284.64
8/4/1931 12:00,1284.59
8/5/1931 12:00,1284.59
8/6/1931 12:00,1284.59
8/7/1931 12:00,1284.59
8/8/1931 12:00,1284.64
8/9/1931 12:00,1284.64
8/10/1931 12:00,1284.64
8/11/1931 12:00,1284.59
8/12/1931 12:00,1284.59
8/13/1931 12:00,1284.59
8/14/1931 12:00,1284.59
8/15/1931 12:00,1284.54
8/16/1931 12:00,1284.69
8/17/1931 12:00,1284.69
8/18/1931 12:00,1284.69
8/19/1931 12:00,1284.69
8/20/1931 12:00,1284.69
8/21/1931 12:00,1284.69
8/22/1931 12:00,1284.69
8/23/1931 12:00,1284.69
8/24/1931 12:00,1284.69
8/25/1931 12:00,1284.69
8/26/1931 12:00,1284.69
8/27/1931 12:00,1284.69
8/28/1931 12:00,1284.74
8/29/1931 12:00,1284.69
8/30/1931 12:00,1284.69
8/31/1931 12:00,1284.64
9/1/1931 12:00,1284.69
9/2/1931 12:00,1284.74
9/3/1931 12:00,1284.69
9/4/1931 12:00,1284.74
9/5/1931 12:00,1284.74
9/6/1931 12:00,1284.69
9/7/1931 12:00,1284.64
9/8/1931 12:00,1284.64
9/9/1931 12:00,1284.64
9/10/1931 12:00,1284.69
9/11/1931 12:00,1284.59
9/12/1931 12:00,1284.64
9/13/1931 12:00,1284.64
9/14/1931 12:00,1284.64
9/15/1931 12:00,1284.64
9/16/1931 12:00,1284.59
9/17/1931 12:00,1284.69
9/18/1931 12:00,1284.54
9/19/1931 12:00,1284.69
9/20/1931 12:00,1284.69
9/21/1931 12:00,1284.74
9/22/1931 12:00,1284.79
9/23/1931 12:00,1284.74
9/24/1931 12:00,1284.64
9/25/1931 12:00,1284.64
9/26/1931 12:00,1284.64
9/27/1931 12:00,1284.64
9/28/1931 12:00,1284.64
9/29/1931 12:00,1284.64
9/30/1931 12:00,1284.64
10/1/1931 12:00,1284.64
10/2/1931 12:00,1284.64
10/3/1931 12:00,1284.64
10/4/1931 12:00,1284.59
10/5/1931 12:00,1284.59
10/6/1931 12:00,1284.59
10/7/1931 12:00,1284.59
10/8/1931 12:00,1284.64
10/9/1931 12:00,1284.59
10/10/1931 12:00,1284.59
10/11/1931 12:00,1284.59
10/12/1931 12:00,1284.59
10/13/1931 12:00,1284.59
10/14/1931 12:00,1284.59
10/15/1931 12:00,1284.59
10/16/1931 12:00,1284.64
10/17/1931 12:00,1284.59
10/18/1931 12:00,1284.59
10/19/1931 12:00,1284.59
10/20/1931 12:00,1284.59
10/21/1931 12:00,1284.59
10/22/1931 12:00,1284.54
10/23/1931 12:00,1284.54
10/24/1931 12:00,1284.64
10/25/1931 12:00,1284.59
10/26/1931 12:00,1284.54
10/27/1931 12:00,1284.59
10/28/1931 12:00,1284.64
10/29/1931 12:00,1284.59
10/30/1931 12:00,1284.59
10/31/1931 12:00,1284.59
11/1/1931 12:00,1284.59
11/2/1931 12:00,1284.54
11/3/1931 12:00,1284.59
11/4/1931 12:00,1284.59
11/5/1931 12:00,1284.59
11/6/1931 12:00,1284.54
11/7/1931 12:00,1284.54
11/8/1931 12:00,1284.54
11/9/1931 12:00,1284.59
11/10/1931 12:00,1284.59
11/11/1931 12:00,1284.59
11/12/1931 12:00,1284.59
11/13/1931 12:00,1284.59
11/14/1931 12:00,1284.59
11/15/1931 12:00,1284.59
11/16/1931 12:00,1284.54
11/17/1931 12:00,1284.59
11/18/1931 12:00,1284.54
11/19/1931 12:00,1284.54
11/20/1931 12:00,1284.54
11/21/1931 12:00,1284.59
11/22/1931 12:00,1284.59
11/23/1931 12:00,1284.59
11/24/1931 12:00,1284.69
11/25/1931 12:00,1285.34
11/26/1931 12:00,1284.89
11/27/1931 12:00,1284.74
11/28/1931 12:00,1284.74
11/29/1931 12:00,1284.69
11/30/1931 12:00,1284.69
12/1/1931 12:00,1284.69
12/2/1931 12:00,1284.69
12/3/1931 12:00,1284.69
12/4/1931 12:00,1284.74
12/5/1931 12:00,1284.74
12/6/1931 12:00,1284.74
12/7/1931 12:00,1284.74
12/8/1931 12:00,1284.89
12/9/1931 12:00,1284.94
12/10/1931 12:00,1284.94
12/11/1931 12:00,1284.94
12/12/1931 12:00,1284.94
12/13/1931 12:00,1284.99
12/14/1931 12:00,1284.99
12/15/1931 12:00,1285.04
12/16/1931 12:00,1285.14
12/17/1931 12:00,1285.14
12/18/1931 12:00,1285.14
12/19/1931 12:00,1285.14
12/20/1931 12:00,1285.14
12/21/1931 12:00,1285.14
12/22/1931 12:00,1284.99
12/23/1931 12:00,1284.89
12/24/1931 12:00,1284.79
12/25/1931 12:00,1284.79
12/26/1931 12:00,1284.69
12/27/1931 12:00,1284.69
12/28/1931 12:00,1284.69
12/29/1931 12:00,1284.69
12/30/1931 12:00,1284.69
12/31/1931 12:00,1284.69
1/1/1932 12:00,1284.69
1/2/1932 12:00,1284.69
1/3/1932 12:00,1284.69
1/4/1932 12:00,1284.69
1/5/1932 12:00,1284.69
1/6/1932 12:00,1284.69
1/7/1932 12:00,1284.69
1/8/1932 12:00,1284.69
1/9/1932 12:00,1284.69
1/10/1932 12:00,1284.64
1/11/1932 12:00,1284.64
1/12/1932 12:00,1284.64
1/13/1932 12:00,1284.64
1/14/1932 12:00,1284.64
1/15/1932 12:00,1284.99
1/16/1932 12:00,1284.79
1/17/1932 12:00,1284.74
1/18/1932 12:00,1284.74
1/19/1932 12:00,1284.74
1/20/1932 12:00,1284.69
1/21/1932 12:00,1284.69
1/22/1932 12:00,1284.69
1/23/1932 12:00,1284.69
1/24/1932 12:00,1284.69
1/25/1932 12:00,1284.69
1/26/1932 12:00,1284.69
1/27/1932 12:00,1284.69
1/28/1932 12:00,1284.69
1/29/1932 12:00,1284.69
1/30/1932 12:00,1286.24
1/31/1932 12:00,1285.39
2/1/1932 12:00,1285.19
2/2/1932 12:00,1285.14
2/3/1932 12:00,1285.14
2/4/1932 12:00,1285.14
2/5/1932 12:00,1285.14
2/6/1932 12:00,1285.04
2/7/1932 12:00,1285.04
2/8/1932 12:00,1285.04
2/9/1932 12:00,1285.04
2/10/1932 12:00,1285.04
2/11/1932 12:00,1284.99
2/12/1932 12:00,1285.49
2/13/1932 12:00,1285.84
2/14/1932 12:00,1285.39
2/15/1932 12:00,1285.24
2/16/1932 12:00,1285.19
2/17/1932 12:00,1285.19
2/18/1932 12:00,1285.19
2/19/1932 12:00,1285.19
2/20/1932 12:00,1285.19
2/21/1932 12:00,1285.19
2/22/1932 12:00,1285.19
2/23/1932 12:00,1285.14
2/24/1932 12:00,1285.14
2/25/1932 12:00,1285.09
2/26/1932 12:00,1285.04
2/27/1932 12:00,1284.99
2/28/1932 12:00,1284.94
2/29/1932 12:00,1284.89
3/1/1932 12:00,1284.84
3/2/1932 12:00,1284.84
3/3/1932 12:00,1284.84
3/4/1932 12:00,1284.79
3/5/1932 12:00,1284.84
3/6/1932 12:00,1284.84
3/7/1932 12:00,1284.94
3/8/1932 12:00,1284.94
3/9/1932 12:00,1284.94
3/10/1932 12:00,1284.94
3/11/1932 12:00,1284.94
3/12/1932 12:00,1284.94
3/13/1932 12:00,1284.94
3/14/1932 12:00,1284.94
3/15/1932 12:00,1284.94
3/16/1932 12:00,1284.89
3/17/1932 12:00,1284.89
3/18/1932 12:00,1284.89
3/19/1932 12:00,1284.89
3/20/1932 12:00,1284.89
3/21/1932 12:00,1284.89
3/22/1932 12:00,1284.84
3/23/1932 12:00,1284.84
3/24/1932 12:00,1284.79
3/25/1932 12:00,1284.79
3/26/1932 12:00,1284.79
3/27/1932 12:00,1284.74
3/28/1932 12:00,1284.74
3/29/1932 12:00,1284.74
3/30/1932 12:00,1284.74
3/31/1932 12:00,1284.74
4/1/1932 12:00,1284.74
4/2/1932 12:00,1284.74
4/3/1932 12:00,1284.74
4/4/1932 12:00,1284.74
4/5/1932 12:00,1284.74
4/6/1932 12:00,1284.69
4/7/1932 12:00,1284.74
4/8/1932 12:00,1284.69
4/9/1932 12:00,1284.69
4/10/1932 12:00,1284.69
4/11/1932 12:00,1284.69
4/12/1932 12:00,1284.69
4/13/1932 12:00,1284.69
4/14/1932 12:00,1284.69
4/15/1932 12:00,1284.69
4/16/1932 12:00,1284.69
4/17/1932 12:00,1284.69
4/18/1932 12:00,1284.69
4/19/1932 12:00,1284.69
4/20/1932 12:00,1284.69
4/21/1932 12:00,1284.69
4/22/1932 12:00,1284.69
4/23/1932 12:00,1284.64
4/24/1932 12:00,1284.64
4/25/1932 12:00,1284.64
4/26/1932 12:00,1284.64
4/27/1932 12:00,1284.64
4/28/1932 12:00,1284.64
4/29/1932 12:00,1284.64
4/30/1932 12:00,1284.64
5/1/1932 12:00,1284.64
5/2/1932 12:00,1284.64
5/3/1932 12:00,1284.64
5/4/1932 12:00,1284.64
5/5/1932 12:00,1284.64
5/6/1932 12:00,1284.64
5/7/1932 12:00,1284.64
5/8/1932 12:00,1284.64
5/9/1932 12:00,1284.64
5/10/1932 12:00,1284.69
5/11/1932 12:00,1284.69
5/12/1932 12:00,1284.69
5/13/1932 12:00,1284.69
5/14/1932 12:00,1284.69
5/15/1932 12:00,1284.69
5/16/1932 12:00,1284.69
5/17/1932 12:00,1284.69
5/18/1932 12:00,1284.69
5/19/1932 12:00,1284.69
5/20/1932 12:00,1284.69
5/21/1932 12:00,1284.69
5/22/1932 12:00,1284.69
5/23/1932 12:00,1284.69
5/24/1932 12:00,1284.69
5/25/1932 12:00,1284.69
5/26/1932 12:00,1284.69
5/27/1932 12:00,1284.74
5/28/1932 12:00,1284.74
5/29/1932 12:00,1284.74
5/30/1932 12:00,1284.74
5/31/1932 12:00,1284.74
6/1/1932 12:00,1284.74
6/2/1932 12:00,1284.74
6/3/1932 12:00,1284.74
6/4/1932 12:00,1284.74
6/5/1932 12:00,1284.74
6/6/1932 12:00,1284.69
6/7/1932 12:00,1284.69
6/8/1932 12:00,1284.69
6/9/1932 12:00,1284.69
6/10/1932 12:00,1284.69
6/11/1932 12:00,1284.69
6/12/1932 12:00,1284.69
6/13/1932 12:00,1284.69
6/14/1932 12:00,1284.69
6/15/1932 12:00,1284.69
6/16/1932 12:00,1284.69
6/17/1932 12:00,1284.69
6/18/1932 12:00,1284.69
6/19/1932 12:00,1284.64
6/20/1932 12:00,1284.64
6/21/1932 12:00,1284.64
6/22/1932 12:00,1284.94
6/23/1932 12:00,1284.94
6/24/1932 12:00,1284.89
6/25/1932 12:00,1284.89
6/26/1932 12:00,1284.94
6/27/1932 12:00,1284.94
6/28/1932 12:00,1284.89
6/29/1932 12:00,1284.89
6/30/1932 12:00,1284.89
7/1/1932 12:00,1284.89
7/2/1932 12:00,1284.89
7/3/1932 12:00,1284.89
7/4/1932 12:00,1284.89
7/5/1932 12:00,1284.89
7/6/1932 12:00,1284.94
7/7/1932 12:00,1284.89
7/8/1932 12:00,1284.89
7/9/1932 12:00,1284.89
7/10/1932 12:00,1284.89
7/11/1932 12:00,1284.84
7/12/1932 12:00,1284.84
7/13/1932 12:00,1284.89
7/14/1932 12:00,1284.89
7/15/1932 12:00,1284.89
7/16/1932 12:00,1284.89
7/17/1932 12:00,1284.89
7/18/1932 12:00,1284.89
7/19/1932 12:00,1284.89
7/20/1932 12:00,1284.89
7/21/1932 12:00,1284.89
7/22/1932 12:00,1284.89
7/23/1932 12:00,1284.89
7/24/1932 12:00,1284.89
7/25/1932 12:00,1284.89
7/26/1932 12:00,1284.89
7/27/1932 12:00,1284.84
7/28/1932 12:00,1284.84
7/29/1932 12:00,1284.84
7/30/1932 12:00,1284.84
7/31/1932 12:00,1284.84
8/1/1932 12:00,1284.84
8/2/1932 12:00,1284.84
8/3/1932 12:00,1284.84
8/4/1932 12:00,1284.84
8/5/1932 12:00,1284.84
8/6/1932 12:00,1284.84
8/7/1932 12:00,1284.84
8/8/1932 12:00,1284.84
8/9/1932 12:00,1284.84
8/10/1932 12:00,1284.84
8/11/1932 12:00,1284.84
8/12/1932 12:00,1284.84
8/13/1932 12:00,1284.84
8/14/1932 12:00,1284.84
8/15/1932 12:00,1284.84
8/16/1932 12:00,1284.84
8/17/1932 12:00,1284.84